Regional Weather Roundup
Issued by NWS

Home | Current Version | Previous Version | Text Only | Print | Product List | Glossary Off
Versions: 1 2 3 4 5 6 7 8 9 10 11 12 13 14 15 16 17 18 19 20 21 22 23 24 25 26 27 28 29 30 31 32 33 34 35 36 37 38 39 40 41 42 43 44 45 46 47 48 49 50

936
ASUS43 KMPX 200201
RWRMN
WEATHER ROUNDUP FOR MINNESOTA
NATIONAL WEATHER SERVICE TWIN CITIES/CHANHASSEN MN
900 PM CDT THU APR 19 2018


NOTE: "FAIR" INDICATES FEW OR NO CLOUDS BELOW 12,000 FEET WITH NO
SIGNIFICANT WEATHER AND/OR OBSTRUCTIONS TO VISIBILITY. N/A MEANS
CURRENT SKY AND/OR WEATHER CONDITIONS ARE NOT AVAILABLE.

MNZ060>063-068>070-200300-
   Twin Cities Metro

CITY           SKY/WX    TMP DP  RH WIND       PRES   REMARKS
TWIN CITIES    FAIR      45  24  43 W6        30.45S
ST PAUL        FAIR      42  24  49 W5        30.45F
CRYSTAL        FAIR      42  22  44 W6        30.43F
BLAINE         PTCLDY    45  25  45 W6        30.44S
LAKEVILLE      FAIR      39  21  48 W3        30.44F
EDEN PRAIRIE   FAIR      40  23  50 W5        30.44S
SOUTH ST PAUL  FAIR      43  23  44 W3        30.43F
LAKE ELMO      FAIR      37  25  60 CALM      30.44F
$$
MNZ001>005-007-008-013>017-022>024-027-028-200300-
   Northwest Minnesota

CITY           SKY/WX    TMP DP  RH WIND       PRES   REMARKS
BEMIDJI        FAIR      42  20  41 CALM      30.37F
HALLOCK        FAIR      45  36  70 S9        30.35F
ROSEAU         FAIR      46  30  53 W5        30.37S
WARROAD        FAIR      48  28  46 SW5       30.37S
THIEF RVR FALL FAIR      45  31  58 CALM      30.38F
CROOKSTON      FAIR      43  37  81 SW3       30.38S
FOSSTON        FAIR      41  25  52 W3        30.39S
DETROIT LAKES  FAIR      45  28  53 CALM      30.39S
MOORHEAD       FAIR      46  30  53 NE5       30.39S
PARK RAPIDS    FAIR      43  27  53 S5        30.38S
MAHNOMEN       FAIR      42  30  61 NW5       30.38S
$$
MNZ006-009>011-018-025>026-200300-
   North Central Minnesota

CITY           SKY/WX    TMP DP  RH WIND       PRES   REMARKS
BAUDETTE       FAIR      43  23  45 CALM      30.36S
FLAG ISLAND    FAIR      36  18  48 S5        30.36R
INTL FALLS     FAIR      38  18  44 CALM      30.37R
WASKISH        FAIR      39  18  41 CALM      30.38S
BIG FORK       FAIR      39  12  33 CALM      30.38R
LONGVILLE      FAIR      37  14  38 CALM      30.39S
GRAND RAPIDS   FAIR      40  17  39 CALM      30.40R
CRANE LAKE     FAIR      30  19  64 CALM      30.39S
ORR            FAIR      39  10  30 CALM      30.36R
COOK           FAIR      39  12  33 CALM      30.37S
WALKER         FAIR      45  19  36 CALM      30.38R
$$
MNZ012-019>021-037-200300-
   Northeast Minnesota

CITY           SKY/WX    TMP DP  RH WIND       PRES   REMARKS
DULUTH         FAIR      47  16  29 W6        30.38R
ELY            FAIR      37  14  38 N3        30.37S
HIBBING        FAIR      33  12  41 CALM      30.37S
EVELETH        FAIR      36  20  52 CALM      30.39R
DULUTH HARBOR  FAIR      43  27  52 SW3       30.39S
TWO HARBORS    FAIR      39  18  41 W3        30.36S
SILVER BAY     FAIR      36  18  48 CALM      30.36S
GRAND MARAIS     N/A     34  21  59 CALM      30.38S
G MARAIS ARPRT FAIR      37   9  30 CALM      30.37S
$$
MNZ029>031-032-039>041-046>048-054>057-064-200300-
   West Central Minnesota

CITY           SKY/WX    TMP DP  RH WIND       PRES   REMARKS
FERGUS FALLS   MOCLDY    48  30  49 SE5       30.37R
WHEATON        CLOUDY    46  28  49 CALM      30.41S
MORRIS         CLEAR     39  30  70 S6        30.40F
ALEXANDRIA     FAIR      43  27  53 S8        30.41S
ELBOW LAKE     MOCLDY    41  36  83 S9        30.40S
WADENA         FAIR      39  30  70 CALM      30.40R
GLENWOOD       FAIR      37  27  65 S5        30.42F
APPLETON       CLEAR     39  27  60 S6        30.42S
BENSON         CLEAR     39  28  65 S3        30.44S
ORTONVILLE     CLEAR     39  30  70 S6        30.40F
MADISON        CLEAR     37  32  81 S6        30.42S
WILLMAR        FAIR      39  30  70 CALM      30.46S
$$
MNZ033>034-036-042>043-049>051-058-059-200300-
   Central Minnesota

CITY           SKY/WX    TMP DP  RH WIND       PRES   REMARKS
ST CLOUD       FAIR      40  31  70 S7        30.42S
SAUK CENTRE    FAIR      38  28  68 S3        30.42S
PAYNESVILLE    FAIR      38  31  76 CALM      30.44S
AITKIN         FAIR      37  16  41 CALM      30.39S
PINE RIVER     FAIR      36  25  64 CALM      30.42R
BRAINERD       FAIR      44  20  38 CALM      30.40F
STAPLES        FAIR      39  27  60 CALM      30.40S
LONG PRAIRIE   FAIR      37  28  70 S6        30.41S
LITTLE FALLS   FAIR      41  21  45 CALM      30.42R
LITCHFIELD     FAIR      37  30  75 CALM      30.44F
BUFFALO        FAIR      39  26  59 SW3       30.45S
MAPLE LAKE     FAIR      40  30  67 SW5       30.44F
HUTCHINSON     FAIR      36  29  75 CALM      30.46S
$$
MNZ037-044-045-052-053-200300-
   East Central Minnesota

CITY           SKY/WX    TMP DP  RH WIND       PRES   REMARKS
PRINCETON      FAIR      43  27  52 CALM      30.43F
MORA           FAIR      43  21  42 CALM      30.44S
CAMBRIDGE      FAIR      45  28  53 S5        30.43F
RUSH CITY      FAIR      43  19  38 SW3       30.43S
MOOSE LAKE     FAIR      43  18  36 SW3       30.38S
HINCKLEY       FAIR      39  25  56 SW3       30.42S
CLOQUET        FAIR      45  10  24 SW5       30.39R
MCGREGOR       FAIR      43  19  39 SW3       30.40S
$$
MNZ071>073-080-081-089-090-097-098-200300-
   Southwest Minnesota

CITY           SKY/WX    TMP DP  RH WIND       PRES   REMARKS
MONTEVIDEO     CLEAR     39  27  60 S5        30.43S
GRANITE FALLS  CLEAR     38  30  72 SE5       30.45S
CANBY          CLEAR     40  29  64 S3        30.43S
REDWOOD FALLS  CLEAR     33  27  78 S6        30.44F WCI  28
OLIVIA         CLEAR     36  28  75 S3        30.44S
PIPESTONE      CLEAR    N/A N/A N/A SE6       30.42R
WINDOM         CLEAR     34  16  47 CALM      30.44S
WORTHINGTON    CLEAR     32  26  78 E3        30.44S
JACKSON        CLEAR     34  21  60 CALM      30.45S
TRACY          CLEAR     36  28  72 S5        30.43R
SLAYTON        CLEAR     32  27  80 SE6       30.43F WCI  27
$$
MNZ065>067-074>077-082>085-091>093-200300-
   South Central Minnesota

CITY           SKY/WX    TMP DP  RH WIND       PRES   REMARKS
MANKATO        FAIR      39  21  48 W6        30.46S
NEW ULM        CLEAR     36  23  60 CALM      30.46S
ST JAMES       CLEAR     34  25  69 CALM      30.47S
FAIRMONT       CLEAR     31  23  72 CALM      30.46F
GLENCOE        FAIR      38  29  71 SW3       30.45S
OWATONNA       FAIR      34  28  80 SW5       30.46R WCI  30
WASECA         FAIR      32  27  80 CALM      30.47S
ALBERT LEA     FAIR      34  19  55 CALM      30.45F
$$
MNZ078>079-086>088-094>096-200300-
   Southeast Minnesota

CITY           SKY/WX    TMP DP  RH WIND       PRES   REMARKS
ROCHESTER      FAIR      37  23  56 W7        30.44F
RED WING       FAIR      37  19  48 W3        30.44F
STANTON        FAIR      37  26  65 S3        30.43F
DODGE CENTER   FAIR      32  27  80 SW5       30.45S WCI  27
WINONA         FAIR      36  28  75 CALM      30.44S
AUSTIN         FAIR      36  25  64 CALM      30.45S
PRESTON        FAIR      36  22  55 NW3       30.45S
$$
ABBREVIATIONS USED IN REMARKS
   TC - TEMPERATURES IN CELSIUS
  WCI - WIND CHILL INDEX
   HX - HEAT INDEX
  VSB - VISIBILITY
$$




USA.gov is the U.S. government's official web portal to all federal, state and local government web resources and services.